Location: Montreal
(45.5000°N, 73.5833°W)
Time: 01:30:29
(UTC-05:00)

Vanguard 1 - Pass Details

Date: 26 October 2017
Orbit: 650 x 3834 km, 34.2° (Epoch: 17 November)

Event Time Altitude Azimuth Distance (km) Brightness Sun altitude
Rises 05:33:26 0° 277° (W) 6,443 - -20.3°
Reaches altitude 10° 05:37:40 10° 270° (W) 5,804 - -19.5°
Exits shadow 05:42:31 21° 258° (WSW) 5,243 13.1 -18.7°
Maximum altitude 05:54:16 37° 212° (SSW) 4,860 13.3 -16.6°
Drops below altitude 10° 06:14:01 10° 155° (SSE) 6,783 14.7 -13.2°
Sets 06:19:39 0° 148° (SSE) 7,589 15.2 -12.2°
